Regional Weather Roundup
Issued by NWS

Home | Current Version | Previous Version | Text Only | Print | Product List | Glossary Off
Versions: 1 2 3 4 5 6 7 8 9 10 11 12 13 14 15 16 17 18 19 20 21 22 23 24 25 26 27 28

000
ASUS45 KBOI 210510
RWRID

IDAHO REGIONAL WEATHER ROUNDUP
NATIONAL WEATHER SERVICE BOISE ID
1000 PM MST MON NOV 20 2017

NOTE: "FAIR" INDICATES FEW OR NO CLOUDS BELOW 12000 FEET
WITH NO SIGNIFICANT WEATHER AND/OR OBSTRUCTIONS TO VISIBILITY

IDZ012-014-210600-
SOUTHWEST IDAHO


CITY           SKY/WX    TMP DP  RH WIND       PRES   REMARKS
BOISE          CLOUDY    48  42  80 SE10      30.04R
CALDWELL       CLOUDY    49  44  83 SE10      30.04R
MOUNTAIN HOME  CLOUDY    43  43 100 E10       30.07R
$$

IDZ016-017-210600-
SOUTHCENTRAL IDAHO


CITY           SKY/WX    TMP DP  RH WIND       PRES   REMARKS
BURLEY         CLOUDY    47  41  80 SW10      30.05R
JEROME         CLOUDY    43  41  93 CALM      30.08R
TWIN FALLS     LGT RAIN  46  43  89 SW8       30.08R
$$

IDZ019>023-210600-
SOUTHEAST IDAHO


CITY           SKY/WX    TMP DP  RH WIND       PRES   REMARKS
IDAHO FALLS    CLOUDY    41  36  82 SW16      30.03R
POCATELLO      CLOUDY    47  38  71 SW16      30.06R
REXBURG        CLOUDY    39  35  86 SW7       30.03R WCI  34
$$

IDZ006-010-011-018-031-032-210600-
CENTRAL IDAHO MOUNTAINS


CITY           SKY/WX    TMP DP  RH WIND       PRES   REMARKS
MCCALL         CLOUDY    37  36  96 VRB3      30.02R
HAILEY         MOCLDY    34  34 100 NW6       30.08R WCI  29
STANLEY          N/A     37  36  96 CALM      30.03R
SALMON         LGT RAIN  35  34  96 S3        29.99R
CHALLIS        CLOUDY    41  35  79 CALM      29.97R
$$

IDZ002-004-006-007-026-210600-
NORTHERN IDAHO


CITY           SKY/WX    TMP DP  RH WIND       PRES   REMARKS
LEWISTON       MOCLDY    45  39  79 S5        30.04R
LOWELL           N/A     38  38 100 N3        30.09R
COEUR D`ALENE  CLOUDY    42  38  85 W7        29.99R
MULLAN PASS    CLOUDY    30  27  88 VRB5      29.95R WCI  25
$$




USA.gov is the U.S. government's official web portal to all federal, state and local government web resources and services.